Content
SEND FEEDBACK

United States of America Flag

EARLETON, FLORIDA


Home > North America > United States > Florida
Elevation: 118 feet     Latitude: 29 41N     Longitude: 082 16W

WEATHER
 
SELECT A DAY
Number of Records: 227,005;   Date Range: 1/1/95 - 3/22/16
 
SHARE

PRINT THIS DATA

[ ← Previous Day ]
WEATHER ALMANAC - FEBRUARY 14, 2013
[ Next Day → ]
[ °C ]   °F
Weather ElementAverageHighLow
Temperature53.3 °F61 °F (1:53 am)46.9 °F (11:53 pm)
Dewpoint48.5 °F52 °F (3:53 am)44.1 °F (11:53 pm)
Humidity84 %94 % (8:29 pm)70 % (1:53 am)
Barometer30.03 in30.10 in (10:53 pm)29.95 in (3:53 am)
Wind Speed5.2 mph11.5 mph (1:53 am)
Weather ElementAverage
Visibility9.9 mi
Wind DirectionSSW (199.5 °)

Weather ElementTotal
Precipitation0.14 in
Heating Degree Days11.1 (Base 65)
Growing Degree Days4 (Base 50)
Averaged from 41 records on February 14, 2013
WEATHER CONDITIONS BREAKOUT
WIND DIRECTION BREAKOUT
WEATHER BY HOUR - FEBRUARY 14, 2013
[ °C ]   °F
Local TimeTemperatureDewpointHumidityBarometerVisibilityWind DirectionWind SpeedGust SpeedPrecipitationEventsConditions
1:53 AM61.0 °F51.1 °F70 %29.96 in10.0 miWest (280°)11.5 mphOvercast
2:53 AM60.1 °F51.1 °F72 %29.96 in10.0 miNW (310°)8.1 mphOvercast
3:53 AM57.9 °F52.0 °F81 %29.95 in10.0 miNW (320°)5.8 mphOvercast
4:40 AM57.2 °F51.8 °F82 %29.96 in10.0 miNW (310°)4.6 mphOvercast
4:53 AM57.9 °F52.0 °F81 %29.97 in10.0 miNNW (330°)6.9 mphOvercast
5:29 AM55.4 °F51.8 °F88 %29.98 in10.0 miNNW (340°)3.5 mph0.00 inOvercast
5:53 AM55.9 °F51.1 °F84 %29.97 in10.0 miNNW (340°)4.6 mph0.00 inRainLight Rain
6:24 AM53.6 °F50.0 °F88 %29.98 in8.0 miNorth (350°)5.8 mph0.01 inRainLight Rain
6:45 AM51.8 °F48.2 °F88 %30.00 in10.0 miNorth (350°)9.2 mph0.01 inOvercast
6:53 AM52.0 °F48.0 °F86 %29.99 in10.0 miNorth (350°)10.4 mph0.01 inOvercast
7:08 AM51.8 °F48.2 °F88 %30.00 in10.0 miNorth (350°)3.5 mphMostly Cloudy
7:53 AM51.1 °F48.0 °F89 %30.04 in10.0 miNNW (330°)5.8 mphMostly Cloudy
8:53 AM51.1 °F48.0 °F89 %30.06 in8.0 miNNW (340°)4.6 mph0.04 inRainLight Rain
9:24 AM51.8 °F48.2 °F88 %30.07 in10.0 miNorth (10°)4.6 mph0.03 inRainLight Rain
9:53 AM52.0 °F48.0 °F86 %30.09 in10.0 miVariable5.8 mph0.03 inOvercast
10:49 AM51.8 °F46.4 °F82 %30.07 in10.0 miESE (110°)3.5 mphOvercast
10:53 AM52.0 °F46.9 °F83 %30.08 in10.0 miCalmOvercast
11:29 AM53.6 °F50.0 °F88 %30.08 in10.0 miCalm0.00 inRainLight Rain
11:41 AM53.6 °F50.0 °F88 %30.09 in10.0 miVariable3.5 mph0.00 inOvercast
11:53 AM55.0 °F48.9 °F80 %30.06 in10.0 miVariable3.5 mph0.00 inOvercast
12:00 PM55.4 °F48.2 °F77 %30.05 in10.0 miNE (40°)5.8 mphOvercast
12:27 PM55.4 °F48.2 °F77 %30.02 in10.0 miEast (100°)4.6 mphOvercast
12:44 PM55.4 °F48.2 °F77 %30.02 in10.0 miENE (70°)3.5 mphOvercast
12:53 PM55.9 °F48.9 °F77 %30.01 in10.0 miCalmOvercast
1:02 PM55.4 °F48.2 °F77 %30.01 in10.0 miENE (70°)3.5 mphOvercast
1:16 PM55.4 °F48.2 °F77 %30.03 in10.0 miNNW (340°)3.5 mphOvercast
1:53 PM55.0 °F50.0 °F83 %30.05 in10.0 miNNW (340°)5.8 mph0.00 inOvercast
2:53 PM54.0 °F48.0 °F80 %29.99 in10.0 miNNE (20°)6.9 mphOvercast
3:53 PM53.1 °F46.9 °F80 %30.06 in10.0 miNNW (330°)10.4 mphOvercast
4:42 PM51.8 °F48.2 °F88 %30.02 in10.0 miNNW (340°)6.9 mph0.00 inRainLight Rain
4:53 PM52.0 °F48.0 °F86 %30.02 in10.0 miNorth (10°)5.8 mph0.00 inOvercast
5:19 PM51.8 °F46.4 °F82 %30.05 in10.0 miNNW (340°)5.8 mphMostly Cloudy
5:23 PM51.8 °F46.4 °F82 %30.05 in10.0 miNNW (340°)6.9 mphScattered Clouds
5:53 PM52.0 °F46.9 °F83 %30.04 in10.0 miNE (50°)3.5 mphMostly Cloudy
6:53 PM51.1 °F46.9 °F86 %30.06 in10.0 miNW (310°)4.6 mph0.00 inRainLight Rain
7:53 PM50.0 °F48.0 °F93 %30.09 in10.0 miWNW (300°)9.2 mph0.01 inOvercast
8:29 PM50.0 °F48.2 °F94 %30.03 in10.0 miNE (50°)5.8 mph0.00 inMostly Cloudy
8:53 PM50.0 °F46.9 °F89 %30.06 in10.0 miCalm0.00 inScattered Clouds
9:53 PM48.9 °F46.9 °F93 %30.05 in10.0 miENE (60°)4.6 mphClear
10:53 PM48.0 °F46.0 °F93 %30.10 in9.0 miNW (310°)5.8 mphClear
11:53 PM46.9 °F44.1 °F90 %30.08 in10.0 miNNW (340°)6.9 mphClear
Hourly data recorded from KGNV, located miles away from Earleton, Florida




STORIES FROM OUR PARTNERS